User: anonymous   Login
Location: Red Deer
(52.2681°N, 113.8112°W)
Time: 08:59:44
(UTC-06:00)
Language:

Cosmos 1455 Rocket - Orbit

View from above orbital plane
View from above orbital plane
View from above satellite
View from above satellite

Ground track
Ground track

The orbit data is extracted from the following two-line orbital elements,

1 14033U 83037B   22273.90039321  .00000420  00000-0  47452-4 0  9997
2 14033  82.5085 333.3018 0016684 219.2034 140.7975 14.84043376744961
Epoch (UTC): 30 September 2022 21:36:33
Eccentricity: 0.0016684
inclination: 82.5085°
perigee height: 605 km
apogee height: 628 km
right ascension of ascending node: 333.3018°
argument of perigee: 219.2034°
revolutions per day: 14.84043376
mean anomaly at epoch: 140.7975°
orbit number at epoch: 74496

The dashed part of the orbit path shows where the satellite is in the earth's shadow,  

DLR